Printer-friendly version
Follow the MPC on Twitter Follow the MPC on Facebook The MPC blog
Minor Planet Center

MPEC 2009-A01 : COMET P/2003 K2 = 2008 X4 (CHRISTENSEN)

The following Minor Planet Electronic Circular may be linked-to from your own Web pages, but must not otherwise be redistributed electronically.

A form allowing access to any MPEC is at the bottom of this page.


Read MPEC 2008-Y86 Read MPEC 2009-A02


M.P.E.C. 2009-A01                                Issued 2009 Jan. 1, 00:34 UT

     The Minor Planet Electronic Circulars contain information on unusual
         minor planets and routine data on comets.  They are published
   on behalf of Commission 20 of the International Astronomical Union by the
          Minor Planet Center, Smithsonian Astrophysical Observatory,
                          Cambridge, MA 02138, U.S.A.

             Prepared using the Tamkin Foundation Computer Network

                              MPC@CFA.HARVARD.EDU
          URL http://www.cfa.harvard.edu/iau/mpc.html  ISSN 1523-6714

                    COMET P/2003 K2 = 2008 X4 (CHRISTENSEN)

Observations:
    PK08X040  C2008 12 30.86246 17 17 06.52 -18 22 11.0          10.6 T EA001349
    PK08X040  C2008 12 30.86543 17 17 05.40 -18 22 03.8                 EA001349
    PK08X040  C2008 12 30.86839 17 17 04.38 -18 21 55.6                 EA001349
    PK08X040  C2008 12 30.87115 17 17 03.36 -18 21 47.9                 EA001349
    PK08X040  C2008 12 31.85865 17 11 12.66 -17 37 50.5          10.5 T EA001349
    PK08X040  C2008 12 31.86014 17 11 12.14 -17 37 46.6                 EA001349
    PK08X040  C2008 12 31.86164 17 11 11.61 -17 37 42.5                 EA001349
    PK08X040  C2008 12 31.86314 17 11 11.12 -17 37 38.9                 EA001349

Observer details:
349 Ageo.  Observer K. Kadota.  0.25-m f/5.0 reflector + CCD.

Orbital elements:
    P/2003 K2 = 2008 X4 (Christensen)
Epoch 2003 Mar. 22.0 TT = JDT 2452720.5
T 2003 Apr. 7.84303 TT                                  MPC
q   0.5488815            (2000.0)            P               Q
n   0.17241115     Peri.  345.48111     +0.17996454     -0.96786591
a   3.1971216      Node    93.92358     +0.91914962     +0.10185538
e   0.8283201      Incl.   10.13974     +0.35039511     +0.22991534
P   5.72

